sat.trackr.live / text

‹ back to catalog

STARLINK-34619

NORAD 64737 · 2025-144P

PAYLOAD ACTIVE UNKNOWN

§ Identity

Operator
Country
US
Launch date
2025-07-02
Launch site
AFETR
Launch vehicle
Mass (kg)
RCS (m²)

Purposes: comms

External: N2YO · Heavens-Above · Gunter

§ Orbital elements

Epoch: 2026-09-20T12:46:35.247360Z

Period
93.85 min
Inclination
53.1601°
Eccentricity
0.0001026
Mean motion
15.34406458 rev/d
Perigee alt
462.0 km
Apogee alt
463.4 km
Semi-major
6,840.8 km
B*
7.6284e-4
RAAN
355.2733°
Arg perigee
77.4900°
Mean anomaly
282.6218°
Rev number
6,955

§ Raw data

STARLINK-346191 64737U 25144P   26263.53235240  .00025490  00000+0  76284-3 0  99952 64737  53.1601 355.2733 0001026  77.4900 282.6218 15.34406458 69553

JSON: /api/v1/satellites/64737 · /tle

For live sub-satellite position, see the globe view (requires WebGL).

§ Visibility from observer

Set your observer location to see the next 7 days of passes ≥ 10°. The values pass through the URL so the page stays shareable.

No JS? Fill the form by hand. The geolocation button needs JavaScript.